Regional Weather Roundup
Issued by NWS Jackson, KY

Home | Current Version | Previous Version | Graphics & Text | Print | Product List | Glossary On
Versions: 1 2 3 4 5 6 7 8 9 10 11 12 13 14 15 16 17 18 19 20 21 22 23 24 25 26 27 28 29 30 31 32 33 34 35 36 37 38 39 40 41 42 43 44 45 46 47 48 49 50
376
ASUS43 KJKL 031810
RWRJKL

EAST KENTUCKY HOURLY WEATHER ROUNDUP
NATIONAL WEATHER SERVICE JACKSON KY
100 PM EST SAT DEC 03 2016

NOTE: "FAIR" INDICATES FEW OR NO CLOUDS BELOW 12,000 FEET WITH
NO SIGNIFICANT WEATHER AND/OR OBSTRUCTIONS TO VISIBILITY.

* THESE REPORTS ARE NOT UNDER NWS QUALITY CONTROL AND MAY NOT
  REPORT WEATHER SUCH AS PRECIPITATION AND FOG.

KYZ079-080-083-085-087-088-110-112-115-119-120-031900
...EASTERN KENTUCKY...

CITY           SKY/WX    TMP DP  RH WIND       PRES   REMARKS
JACKSON        CLOUDY    40  29  64 CALM      30.31S
6HR MIN TEMP:  35; 6HR MAX TEMP:  41;

LONDON         CLOUDY    40  27  59 CALM      30.32S
6HR MIN TEMP:  32; 6HR MAX TEMP:  41;

SOMERSET*      PTSUNNY   41  30  65 N6        30.35S
MONTICELLO*    CLOUDY    41  30  65 VRB7      30.36S
6HR MIN TEMP:  25; 6HR MAX TEMP:  41;

WILLIAMSBURG*  CLOUDY    39  28  65 CALM      30.33S
MIDDLESBORO*   PTSUNNY   41  30  65 CALM      30.32S
6HR MIN TEMP:  30; 6HR MAX TEMP:  41;

HARLAN APT*    CLOUDY    41  28  60 CALM      30.30S
PIKE CO APT*   CLOUDY    38  28  67 CALM      30.31R
BIG SANDY APT* CLOUDY    39  29  66 CALM      30.31S
MOREHEAD APT*  CLOUDY    39  30  70 NW5       30.35R
ASHLAND*       CLOUDY    43  28  56 NW5       30.32S
$$

KYZ035-036-041-042-044-050-067-078-099-031900
...CENTRAL KENTUCKY...

CITY           SKY/WX    TMP DP  RH WIND       PRES   REMARKS
MT STERLING*   CLOUDY    39  32  75 N3        30.35S
FLEMING/MASON* CLOUDY    39  27  62 W6        30.35R
DANVILLE*      CLOUDY    39  30  70 CALM      30.35F
LEXINGTON      CLOUDY    41  28  60 NW3       30.34S
6HR MIN TEMP:  38; 6HR MAX TEMP:  42;

FRANKFORT      CLOUDY    43  26  51 CALM      30.34S
6HR MIN TEMP:  38; 6HR MAX TEMP:  43;

LOUISVILLE     CLOUDY    44  26  49 W3        30.37S
6HR MIN TEMP:  41; 6HR MAX TEMP:  45;

LEBANON*       CLOUDY    41  30  65 CALM      30.35F
GLASGOW*       CLOUDY    41  32  69 NE5       30.34F
BOWLING GREEN  CLOUDY    44  32  62 NE5       30.36F
6HR MIN TEMP:  30; 6HR MAX TEMP:  44;

$$

KYZ091>093-OHZ055-061-077-WVZ005-015-034-035-042-031900
...SOUTHERN OHIO/WEST VIRGINIA...

CITY           SKY/WX    TMP DP  RH WIND       PRES   REMARKS
COVINGTON      CLOUDY    40  30  67 CALM      30.33F
COLUMBUS       CLOUDY    39  28  64 NW8       30.31S WCI  33
DAYTON         CLOUDY    38  25  59 SW8       30.32S WCI  32
WILMINGTON     CLOUDY    38  28  67 W9        30.30F WCI  31
HUNTINGTON     CLOUDY    42  26  53 NW3       30.32F
CHARLESTON     CLOUDY    40  26  57 CALM      30.30F
PINEVILLE*     CLOUDY    38  24  57 MISG      30.31F
BECKLEY        CLOUDY    33  23  66 N5        30.23F WCI  29
BLUEFIELD      CLOUDY    31  23  72 VRB3      30.22F
LOGAN CO APT*  CLOUDY    37  27  65 CALM      30.27F
$$

VAZ002-007-008-TNZ017-027-036-066-071-031900
...SOUTHWEST VIRGINIA/EAST TENNESSEE...

CITY           SKY/WX    TMP DP  RH WIND       PRES   REMARKS
WISE*          CLOUDY    36  28  75 CALM      30.26R
JONESVILLE*      N/A     41  30  65 CALM      30.33R
ABINGDON*      CLOUDY    40  29  63 W3        30.25F
BRISTOL        CLOUDY    41  29  62 CALM      30.28F
MORRISTOWN*    CLEAR     41  30  65 NE6       30.28S
SEVIERVILLE*   CLEAR     43  30  61 CALM      30.29S
KNOXVILLE      CLOUDY    44  31  60 NE8       30.29S
OAK RIDGE      CLOUDY    45  30  55 NE6       30.31F
CROSSVILLE     CLOUDY    40  29  64 VRB3      30.28F
NASHVILLE      CLOUDY    45  30  55 VRB3      30.34F
$$

...KEY TO REMARKS...
VSB - VISIBILITY IN MILES
WCI - WIND CHILL INDEX
HX  - HEAT INDEX

$$




USA.gov is the U.S. government's official web portal to all federal, state and local government web resources and services.